Location: California Mobile Home Park
(33.7461°N, 117.9092°W)
Time: 06:03:00
(UTC+00:00)

ALOS - Pass Details

Date: 29 June 2022
Orbit: 681 x 684 km, 97.9° (Epoch: 11 August)

Event Time Altitude Azimuth Distance (km) Brightness Sun altitude
Rises 12:05:58 0° 357° (N) 3,051 6.1 -7.6°
Reaches altitude 10° 12:08:31 10° 344° (NNW) 2,131 5.1 -7.1°
Maximum altitude 12:12:17 25° 290° (WNW) 1,370 3.5 -6.5°
Drops below altitude 10° 12:16:03 10° 236° (SW) 2,119 4.1 -5.8°
Enters shadow 12:16:54 - 230° (SW) 2,406 4.4 -5.7°
